Regional Weather Roundup
Issued by NWS Albany, NY

Home | Current Version | Previous Version | Text Only | Print | Product List | Glossary On
Versions: 1 2 3 4 5 6 7 8 9 10 11 12 13 14 15 16 17 18 19 20 21 22 23 24 25 26 27 28 29 30 31 32 33 34 35 36 37 38 39 40 41 42 43 44 45 46 47 48 49 50
663
ASUS41 KALY 220510
RWRALY

NEW YORK STATE HOURLY WEATHER ROUNDUP
NATIONAL WEATHER SERVICE ALBANY NY
1200 AM EST WED FEB 22 2017

NOTE: "FAIR" INDICATES FEW OR NO CLOUDS BELOW 12,000 FEET WITH NO
SIGNIFICANT WEATHER AND/OR NO OBSTRUCTIONS TO VISIBILITY.

NYZ032-033-038>043-046>054-057>066-NYZ062>081-082-084-220600-
EAST


CITY           SKY/WX    TMP DP  RH WIND       PRES   REMARKS
ALBANY         CLOUDY    40  28  62 S8        30.06R WCI  34
GLENS FALLS    CLOUDY    39  24  55 SW3       30.04S
POUGHKEEPSIE   NOT AVBL
NEWBURGH       CLOUDY    41  32  70 SW6       30.09F
ISLIP          CLOUDY    40  37  89 S7        30.13F
NEW YORK CITY  CLOUDY    45  33  63 SW10        N/A
CENTRAL PARK   PTCLDY    43  32  65 SW8G22    30.14F
$$

NYZ005>009-017-018-044>046-055-056-220600-
CENTRAL


CITY           SKY/WX    TMP DP  RH WIND       PRES   REMARKS
FULTON         CLOUDY    41  32  70 SE5       29.97F
SYRACUSE       CLOUDY    40  35  83 E5        29.98F
ROME           CLOUDY    40  29  64 E7        30.03S
ELMIRA         NOT AVBL
BINGHAMTON     NOT AVBL
$$

NYZ026>034-041>043-087-220600-
NORTH


CITY           SKY/WX    TMP DP  RH WIND       PRES   REMARKS
WATERTOWN      CLOUDY    46  32  58 S9G20     29.95S
FORT DRUM      NOT AVBL
OGDENSBURG     MOCLDY    42  31  66 S8        29.93F
MASSENA        CLOUDY    34  31  88 NE3       29.95S
SARANAC LAKE   CLOUDY    37  28  70 SW12      29.93F WCI  29
PLATTSBURGH    NOT AVBL
$$

NYZ001>004-010>016-019>021-085-220600-
WEST


CITY           SKY/WX    TMP DP  RH WIND       PRES   REMARKS
NIAGARA FALLS  CLOUDY    43  39  86 SW5       29.95S FOG
BUFFALO        CLOUDY    47  43  86 CALM      29.95F
DUNKIRK        CLOUDY    49  40  71 S5        29.94F
JAMESTOWN      CLOUDY    46  30  53 CALM      29.95F
WELLSVILLE     CLOUDY    46  30  53 W3        29.98F
ROCHESTER      MOCLDY    50  33  52 SW7       29.95F
PENN YAN       CLOUDY    47  27  45 S14       29.97F
$$

             KEY
       WCI = WIND CHILL INDEX
       VSB = VISIBILITY
       HX  = HEAT INDEX
$$




USA.gov is the U.S. government's official web portal to all federal, state and local government web resources and services.